Time,TemperatureF,DewpointF,PressureIn,WindDirection,WindDirectionDegrees,WindSpeedMPH,WindSpeedGustMPH,Humidity,HourlyPrecipIn,Conditions,Clouds,dailyrainin,SoftwareType,DateUTC
2013-10-29 00:09:00,27.1,26.6,30.31,South,180,0.0,-999.0,98,-99.99,,,0.00,Acu-Link.com,2013-10-29 04:09:00,
2013-10-29 00:24:00,26.8,26.3,30.32,NW,315,0.0,-999.0,98,-99.99,,,0.00,Acu-Link.com,2013-10-29 04:24:00,
2013-10-29 00:39:00,26.4,25.9,30.32,NE,45,0.0,-999.0,98,-99.99,,,0.00,Acu-Link.com,2013-10-29 04:39:00,
2013-10-29 00:54:00,26.2,25.7,30.32,WNW,292,0.0,-999.0,98,-99.99,,,0.00,Acu-Link.com,2013-10-29 04:54:00,
2013-10-29 01:10:00,25.7,25.2,30.32,NW,315,0.0,-999.0,98,-99.99,,,0.00,Acu-Link.com,2013-10-29 05:10:00,
2013-10-29 01:25:00,25.5,25.0,30.33,West,270,0.0,-999.0,98,-99.99,,,0.00,Acu-Link.com,2013-10-29 05:25:00,
2013-10-29 01:40:00,25.3,24.8,30.32,ESE,112,0.0,-999.0,98,-99.99,,,0.00,Acu-Link.com,2013-10-29 05:40:00,
2013-10-29 01:55:00,25.2,24.7,30.33,WNW,292,0.0,-999.0,98,-99.99,,,0.00,Acu-Link.com,2013-10-29 05:55:00,
2013-10-29 02:11:00,24.8,24.3,30.33,NNE,22,0.0,-999.0,98,-99.99,,,0.00,Acu-Link.com,2013-10-29 06:11:00,
2013-10-29 02:26:00,24.4,23.9,30.33,WNW,292,0.0,-999.0,98,-99.99,,,0.00,Acu-Link.com,2013-10-29 06:26:00,
2013-10-29 02:41:00,24.3,23.8,30.34,NNE,22,0.0,-999.0,98,-99.99,,,0.00,Acu-Link.com,2013-10-29 06:41:00,
2013-10-29 02:56:00,24.3,23.8,30.34,WNW,292,0.0,-999.0,98,-99.99,,,0.00,Acu-Link.com,2013-10-29 06:56:00,
2013-10-29 03:11:00,24.1,23.6,30.34,West,270,0.0,-999.0,98,-99.99,,,0.00,Acu-Link.com,2013-10-29 07:11:00,
2013-10-29 03:26:00,23.7,23.2,30.35,WNW,292,0.0,-999.0,98,-99.99,,,0.00,Acu-Link.com,2013-10-29 07:26:00,
2013-10-29 03:42:00,23.7,23.2,30.35,NNE,22,0.0,-999.0,98,-99.99,,,0.00,Acu-Link.com,2013-10-29 07:42:00,
2013-10-29 03:57:00,23.4,22.9,30.35,NNE,22,0.0,-999.0,98,-99.99,,,0.00,Acu-Link.com,2013-10-29 07:57:00,
2013-10-29 04:12:00,23.0,22.5,30.35,WNW,292,0.0,-999.0,98,-99.99,,,0.00,Acu-Link.com,2013-10-29 08:12:00,
2013-10-29 04:27:00,22.8,22.3,30.36,NW,315,0.0,-999.0,98,-99.99,,,0.00,Acu-Link.com,2013-10-29 08:27:00,
2013-10-29 04:42:00,22.8,22.3,30.36,WNW,292,0.0,-999.0,98,-99.99,,,0.00,Acu-Link.com,2013-10-29 08:42:00,
2013-10-29 04:57:00,22.5,22.0,30.37,NE,45,0.0,-999.0,98,-99.99,,,0.00,Acu-Link.com,2013-10-29 08:57:00,
2013-10-29 05:12:00,22.3,21.8,30.37,NE,45,0.0,-999.0,98,-99.99,,,0.00,Acu-Link.com,2013-10-29 09:12:00,
2013-10-29 05:27:00,22.1,21.6,30.38,North,0,0.0,-999.0,98,-99.99,,,0.00,Acu-Link.com,2013-10-29 09:27:00,
2013-10-29 05:43:00,21.9,21.4,30.38,NNE,22,0.0,-999.0,98,-99.99,,,0.00,Acu-Link.com,2013-10-29 09:43:00,
2013-10-29 05:58:00,21.7,21.2,30.37,WNW,292,0.0,-999.0,98,-99.99,,,0.00,Acu-Link.com,2013-10-29 09:58:00,
2013-10-29 06:13:00,21.2,20.7,30.38,WNW,292,0.0,-999.0,98,-99.99,,,0.00,Acu-Link.com,2013-10-29 10:13:00,
2013-10-29 06:28:00,21.2,20.7,30.38,NW,315,0.0,-999.0,98,-99.99,,,0.00,Acu-Link.com,2013-10-29 10:28:00,
2013-10-29 06:43:00,21.2,20.7,30.39,WNW,292,0.0,-999.0,98,-99.99,,,0.00,Acu-Link.com,2013-10-29 10:43:00,
2013-10-29 06:59:00,21.0,20.5,30.40,WNW,292,0.0,-999.0,98,-99.99,,,0.00,Acu-Link.com,2013-10-29 10:59:00,
2013-10-29 07:14:00,20.8,20.3,30.40,NW,315,0.0,-999.0,98,-99.99,,,0.00,Acu-Link.com,2013-10-29 11:14:00,
2013-10-29 07:29:00,20.7,20.2,30.41,West,270,0.0,-999.0,98,-99.99,,,0.00,Acu-Link.com,2013-10-29 11:29:00,
2013-10-29 07:44:00,20.7,20.2,30.40,West,270,0.0,-999.0,98,-99.99,,,0.00,Acu-Link.com,2013-10-29 11:44:00,
2013-10-29 07:59:00,20.8,20.3,30.40,NNW,337,0.0,-999.0,98,-99.99,,,0.00,Acu-Link.com,2013-10-29 11:59:00,
2013-10-29 08:15:00,21.4,20.9,30.41,NNW,337,0.0,-999.0,98,-99.99,,,0.00,Acu-Link.com,2013-10-29 12:15:00,
2013-10-29 08:30:00,22.1,21.6,30.41,NNW,337,0.0,-999.0,98,-99.99,,,0.00,Acu-Link.com,2013-10-29 12:30:00,
2013-10-29 08:45:00,22.8,22.3,30.41,NNW,337,0.0,-999.0,98,-99.99,,,0.00,Acu-Link.com,2013-10-29 12:45:00,
2013-10-29 09:00:00,24.1,23.6,30.41,NNW,337,0.0,-999.0,98,-99.99,,,0.00,Acu-Link.com,2013-10-29 13:00:00,
2013-10-29 09:16:00,25.9,25.4,30.42,NNE,22,0.0,-999.0,98,-99.99,,,0.00,Acu-Link.com,2013-10-29 13:16:00,
2013-10-29 09:31:00,29.3,27.8,30.41,NNE,22,0.0,-999.0,94,-99.99,,,0.00,Acu-Link.com,2013-10-29 13:31:00,
2013-10-29 09:46:00,30.7,27.3,30.42,NNE,22,0.0,-999.0,87,-99.99,,,0.00,Acu-Link.com,2013-10-29 13:46:00,
2013-10-29 10:01:00,33.8,28.0,30.41,East,90,0.0,-999.0,79,-99.99,,,0.00,Acu-Link.com,2013-10-29 14:01:00,
2013-10-29 10:16:00,35.6,26.5,30.41,NE,45,0.0,-999.0,69,-99.99,,,0.00,Acu-Link.com,2013-10-29 14:16:00,
2013-10-29 10:32:00,37.8,26.0,30.40,SSW,202,0.0,-999.0,62,-99.99,,,0.00,Acu-Link.com,2013-10-29 14:32:00,
2013-10-29 10:47:00,39.0,25.9,30.41,NNE,22,1.1,-999.0,59,-99.99,,,0.00,Acu-Link.com,2013-10-29 14:47:00,
2013-10-29 11:02:00,40.5,26.9,30.39,NNW,337,1.1,-999.0,58,-99.99,,,0.00,Acu-Link.com,2013-10-29 15:02:00,
2013-10-29 11:17:00,42.3,27.7,30.39,SE,135,3.2,-999.0,56,-99.99,,,0.00,Acu-Link.com,2013-10-29 15:17:00,
2013-10-29 11:32:00,41.5,26.6,30.39,SW,225,2.2,-999.0,55,-99.99,,,0.00,Acu-Link.com,2013-10-29 15:32:00,
2013-10-29 11:48:00,41.5,27.0,30.38,ENE,67,1.1,-999.0,56,-99.99,,,0.00,Acu-Link.com,2013-10-29 15:48:00,
2013-10-29 12:03:00,41.7,25.8,30.38,ENE,67,1.1,-999.0,53,-99.99,,,0.00,Acu-Link.com,2013-10-29 16:03:00,
2013-10-29 12:18:00,42.4,26.5,30.37,WNW,292,1.1,-999.0,53,-99.99,,,0.00,Acu-Link.com,2013-10-29 16:18:00,
2013-10-29 12:33:00,44.8,25.8,30.36,NE,45,0.0,-999.0,47,-99.99,,,0.00,Acu-Link.com,2013-10-29 16:33:00,
2013-10-29 12:49:00,42.8,25.9,30.36,ENE,67,2.7,-999.0,51,-99.99,,,0.00,Acu-Link.com,2013-10-29 16:49:00,
2013-10-29 13:04:00,44.1,26.7,30.34,East,90,0.0,-999.0,50,-99.99,,,0.00,Acu-Link.com,2013-10-29 17:04:00,
2013-10-29 13:19:00,44.6,26.1,30.34,SSE,157,2.2,-999.0,48,-99.99,,,0.00,Acu-Link.com,2013-10-29 17:19:00,
2013-10-29 13:35:00,44.8,26.8,30.33,NNE,22,0.0,-999.0,49,-99.99,,,0.00,Acu-Link.com,2013-10-29 17:35:00,
2013-10-29 13:50:00,44.8,27.3,30.33,SSW,202,0.0,-999.0,50,-99.99,,,0.00,Acu-Link.com,2013-10-29 17:50:00,
2013-10-29 14:05:00,46.6,26.9,30.33,West,270,0.0,-999.0,46,-99.99,,,0.00,Acu-Link.com,2013-10-29 18:05:00,
2013-10-29 14:20:00,46.0,27.9,30.33,WNW,292,0.0,-999.0,49,-99.99,,,0.00,Acu-Link.com,2013-10-29 18:20:00,
2013-10-29 14:36:00,46.0,26.9,30.33,WSW,247,0.0,-999.0,47,-99.99,,,0.00,Acu-Link.com,2013-10-29 18:36:00,
2013-10-29 14:51:00,45.5,28.9,30.33,NW,315,1.1,-999.0,52,-99.99,,,0.00,Acu-Link.com,2013-10-29 18:51:00,
2013-10-29 15:06:00,45.0,27.0,30.32,North,0,1.1,-999.0,49,-99.99,,,0.00,Acu-Link.com,2013-10-29 19:06:00,
2013-10-29 15:21:00,44.6,27.6,30.32,WNW,292,0.0,-999.0,51,-99.99,,,0.00,Acu-Link.com,2013-10-29 19:21:00,
2013-10-29 15:36:00,44.2,27.7,30.33,NNE,22,0.0,-999.0,52,-99.99,,,0.00,Acu-Link.com,2013-10-29 19:36:00,
2013-10-29 15:52:00,43.9,28.3,30.32,NW,315,0.0,-999.0,54,-99.99,,,0.00,Acu-Link.com,2013-10-29 19:52:00,
2013-10-29 16:07:00,43.3,29.5,30.33,WNW,292,0.0,-999.0,58,-99.99,,,0.00,Acu-Link.com,2013-10-29 20:07:00,
2013-10-29 16:22:00,42.1,29.2,30.33,NW,315,0.0,-999.0,60,-99.99,,,0.00,Acu-Link.com,2013-10-29 20:22:00,
2013-10-29 16:37:00,41.2,27.6,30.32,NW,315,0.0,-999.0,58,-99.99,,,0.00,Acu-Link.com,2013-10-29 20:37:00,
2013-10-29 16:53:00,40.3,26.3,30.33,WNW,292,2.2,-999.0,57,-99.99,,,0.00,Acu-Link.com,2013-10-29 20:53:00,
2013-10-29 17:08:00,39.2,25.7,30.32,NW,315,0.0,-999.0,58,-99.99,,,0.00,Acu-Link.com,2013-10-29 21:08:00,
2013-10-29 17:23:00,37.9,24.9,30.32,NW,315,0.0,-999.0,59,-99.99,,,0.00,Acu-Link.com,2013-10-29 21:23:00,
2013-10-29 17:38:00,36.7,23.7,30.32,NW,315,0.0,-999.0,59,-99.99,,,0.00,Acu-Link.com,2013-10-29 21:38:00,
2013-10-29 17:54:00,35.4,24.5,30.32,West,270,0.0,-999.0,64,-99.99,,,0.00,Acu-Link.com,2013-10-29 21:54:00,
2013-10-29 18:09:00,34.5,22.8,30.33,West,270,0.0,-999.0,62,-99.99,,,0.00,Acu-Link.com,2013-10-29 22:09:00,
2013-10-29 18:24:00,33.4,22.6,30.34,West,270,0.0,-999.0,64,-99.99,,,0.00,Acu-Link.com,2013-10-29 22:24:00,
2013-10-29 18:39:00,32.5,22.8,30.34,NNE,22,0.0,-999.0,67,-99.99,,,0.00,Acu-Link.com,2013-10-29 22:39:00,
2013-10-29 18:54:00,31.8,22.8,30.36,NNW,337,0.0,-999.0,69,-99.99,,,0.00,Acu-Link.com,2013-10-29 22:54:00,
2013-10-29 19:10:00,31.3,22.3,30.37,North,0,0.0,-999.0,69,-99.99,,,0.00,Acu-Link.com,2013-10-29 23:10:00,
2013-10-29 19:25:00,30.7,22.4,30.37,NW,315,0.0,-999.0,71,-99.99,,,0.00,Acu-Link.com,2013-10-29 23:25:00,
2013-10-29 19:40:00,29.7,23.1,30.36,WNW,292,0.0,-999.0,76,-99.99,,,0.00,Acu-Link.com,2013-10-29 23:40:00,
2013-10-29 19:55:00,29.3,22.7,30.35,ESE,112,0.0,-999.0,76,-99.99,,,0.00,Acu-Link.com,2013-10-29 23:55:00,
2013-10-29 20:11:00,28.8,24.3,30.36,NE,45,0.0,-999.0,83,-99.99,,,0.00,Acu-Link.com,2013-10-30 00:11:00,
2013-10-29 20:26:00,28.4,25.0,30.36,NNE,22,0.0,-999.0,87,-99.99,,,0.00,Acu-Link.com,2013-10-30 00:26:00,
2013-10-29 20:41:00,28.0,24.9,30.37,WNW,292,0.0,-999.0,88,-99.99,,,0.00,Acu-Link.com,2013-10-30 00:41:00,
2013-10-29 20:57:00,27.7,25.2,30.36,NW,315,0.0,-999.0,90,-99.99,,,0.00,Acu-Link.com,2013-10-30 00:57:00,
2013-10-29 21:12:00,27.3,23.4,30.36,NW,315,0.0,-999.0,85,-99.99,,,0.00,Acu-Link.com,2013-10-30 01:12:00,
2013-10-29 21:27:00,27.1,24.3,30.36,SSW,202,0.0,-999.0,89,-99.99,,,0.00,Acu-Link.com,2013-10-30 01:27:00,
2013-10-29 21:42:00,26.8,24.0,30.36,NNE,22,0.0,-999.0,89,-99.99,,,0.00,Acu-Link.com,2013-10-30 01:42:00,
2013-10-29 21:57:00,26.6,24.3,30.35,NW,315,0.0,-999.0,91,-99.99,,,0.00,Acu-Link.com,2013-10-30 01:57:00,
2013-10-29 22:13:00,26.6,23.5,30.34,NNW,337,0.0,-999.0,88,-99.99,,,0.00,Acu-Link.com,2013-10-30 02:13:00,
2013-10-29 22:28:00,26.2,25.2,30.34,West,270,0.0,-999.0,96,-99.99,,,0.00,Acu-Link.com,2013-10-30 02:28:00,
2013-10-29 22:43:00,25.9,25.4,30.34,NW,315,0.0,-999.0,98,-99.99,,,0.00,Acu-Link.com,2013-10-30 02:43:00,
2013-10-29 22:59:00,25.5,25.0,30.34,NW,315,0.0,-999.0,98,-99.99,,,0.00,Acu-Link.com,2013-10-30 02:59:00,
2013-10-29 23:14:00,25.2,24.7,30.34,WNW,292,0.0,-999.0,98,-99.99,,,0.00,Acu-Link.com,2013-10-30 03:14:00,
2013-10-29 23:29:00,25.2,24.7,30.34,WNW,292,0.0,-999.0,98,-99.99,,,0.00,Acu-Link.com,2013-10-30 03:29:00,
2013-10-29 23:44:00,24.6,24.1,30.33,NW,315,0.0,-999.0,98,-99.99,,,0.00,Acu-Link.com,2013-10-30 03:44:00,
2013-10-29 23:59:00,24.6,24.1,30.34,NW,315,0.0,-999.0,98,-99.99,,,0.00,Acu-Link.com,2013-10-30 03:59:00,